CAPE
1881 1492 1619 1842 2062 2185 2166 1988 1783 1865 1998 2043 1983 2007 2017 2151 2193 2156 2193 2268 2400 2615 2759 2674 2567 2453 2241 1971 1747 1778 1759 1724 1844 1910 1797 1794 1678 1689 1779 1774 1618 1211 1725
2317 1610 1534 1722 1979 2189 2302 2175 1874 1903 2128 2182 2147 2228 2236 2332 2318 2338 2404 2399 2582 2751 2694 2590 2596 2453 2252 2258 1904 1726 1622 1634 1689 1799 1860 1844 1926 1734 1660 1505 1464 1471 1660
2651 1986 1682 1622 1900 2128 2327 2370 2293 2127 2287 2308 2297 2335 2379 2401 2390 2445 2497 2517 2704 2918 2849 2423 2404 2369 2541 2439 2045 1797 1649 1642 1689 1714 1856 1175 1368 1950 1535 1474 1479 1707 1723
2066 2671 1904 1592 1807 2021 2140 2298 2392 2468 2438 2434 2424 2477 2510 2456 2417 2489 2532 2498 2786 3012 2979 2448 2433 2717 2698 2518 2031 1740 1645 1641 1607 1606 1379 1140 1028 2054 1721 1911 1791 1768 1799
1071 2999 2350 1570 1718 1934 2016 2230 2349 2501 2414 2434 2438 2623 2657 2558 2508 2557 2514 2574 2848 3018 3016 3043 2758 2767 2629 2266 1845 1586 1583 1477 1426 1443 986 774 927 1767 1768 1952 1741 1773 1545
2092 2186 2601 1905 1636 1877 1966 2208 2344 2402 2351 2300 2370 2633 2738 2662 2602 2577 2442 2662 2980 3233 3122 3085 2802 2716 2271 2021 1677 1547 1450 1291 1220 1208 846 702 513 1858 1865 1821 1597 1417 1418
2952 2609 2421 2122 1676 1806 1998 2167 2336 2385 2349 2244 2322 2511 2667 2692 2637 2519 2354 2582 2862 3191 3097 2938 2836 2376 2092 1615 1696 1501 1351 1170 1178 1128 863 692 746 1754 1933 2010 1663 1372 1326
2946 3257 2168 1985 1757 1677 1805 1891 2111 2270 2281 2253 2313 2440 2634 2595 2512 2426 2297 2456 2679 2911 2683 2480 2473 1981 1565 1518 1587 1478 1313 1123 1048 1043 860 560 995 1807 1802 1925 1513 1372 1408
2940 3702 3089 2394 1892 1570 1600 1659 1826 2042 2261 2330 2355 2407 2542 2452 2385 2307 2232 2427 2641 2619 2456 2346 2305 1979 1457 1390 1448 1427 1313 1193 982 1088 851 551 1116 1769 1680 1760 1596 1355 1361
3223 2997 3667 3164 2405 2081 1774 1494 1559 1701 1924 2217 2368 2411 2427 2368 2305 2246 2092 2271 2469 2486 2334 2332 2253 1988 1599 1280 1305 1325 1271 1195 1043 1003 1032 702 818 2279 1948 1828 1668 1570 1343
2730 2989 2973 3110 2686 2640 2361 1781 1403 1432 1505 1752 2045 2293 2440 2557 2371 2283 2149 2039 2307 2360 2258 2105 2087 1923 1555 1274 1195 1204 1195 1191 1180 951 935 903 1003 1799 1942 1708 1453 1153 1272
310 3246 2980 2707 2675 2750 2681 2347 1902 1777 1659 1705 1813 1997 2418 2539 2732 2535 2255 2010 2091 2197 2128 2014 1907 1839 1585 1428 1208 1152 1083 1278 1082 1047 1052 787 1381 1681 2211 1393 1130 1030 850
0 2498 2999 2841 2434 2670 2357 2717 2359 2102 1896 1932 1948 2095 2147 2213 2448 2244 2321 2030 2156 2013 2056 1903 1731 1627 1696 1748 1653 1374 1281 1333 1132 991 909 734 999 1670 1943 1633 1333 1028 652
0 0 2847 2836 2764 2481 2389 2422 2913 2901 2376 2319 2219 2401 2449 2243 2322 2528 2145 2348 2371 2276 2136 1931 1870 1920 1837 1743 1598 1682 1531 1312 1316 963 1050 592 716 1366 1497 1437 1303 1042 532
0 0 0 600 2079 2741 2200 2402 2501 2449 2603 2600 2740 2645 2427 2475 2490 2418 2254 2175 2348 2265 2182 1978 1948 1951 1855 1677 1653 1541 1527 1358 1260 953 731 465 297 184 1177 1034 1139 868 691
0 0 0 0 355 1224 2336 2216 2283 2403 2338 2709 2569 2587 2811 2792 2272 2269 2287 1800 2283 2010 2009 2000 1969 1886 1850 1658 1606 1524 1440 1386 1279 848 571 514 267 91 256 1208 902 764 657
0 0 0 0 0 239 906 928 1979 2134 2221 2185 2379 2550 2331 2457 2645 2525 2367 2076 1784 2058 1633 2022 2049 2027 1838 1769 1627 1553 1396 1394 1318 1030 757 422 308 89 0 348 715 311 231
0 0 0 0 0 0 0 568 941 1307 2158 2202 2019 2258 2460 2264 2144 2329 2338 1936 2187 1923 2032 2206 2013 2023 1904 1811 1609 1615 1461 1393 1336 923 757 526 292 216 94 4 99 343 345
0 0 0 0 0 0 0 0 0 639 841 1830 2097 1956 2309 2092 1966 2205 2279 2140 2001 1827 1879 2094 1948 1911 1928 1660 1591 1343 1300 1283 1153 937 705 510 283 192 148 174 58 150 110
0 0 0 0 0 0 0 0 0 0 3 410 1346 2136 2103 2169 2060 2128 2254 2163 2079 1899 1824 2177 1923 1909 1792 1706 1465 1447 1219 1115 920 705 652 513 254 98 67 185 59 18 5
0 0 0 0 0 0 0 0 0 0 0 0 325 1221 2012 2115 2123 2007 2105 2071 1914 1850 1772 2003 1723 1627 1426 1311 1229 1150 963 807 727 628 404 248 126 54 19 101 25 21 0
0 0 0 0 0 0 0 0 0 0 0 0 0 207 1166 1593 1781 2036 2113 2032 1792 1555 1507 1778 1402 1276 1179 1126 939 860 727 361 355 575 443 109 168 18 2 0 2 42 46
0 0 0 0 0 0 0 0 0 0 0 0 0 0 451 1369 1712 1845 2089 2033 1659 1103 512 1514 1351 1156 1055 1029 1474 544 238 80 55 138 337 157 8 3 5 1 0 62 64
0 0 0 0 0 0 0 0 0 0 0 0 0 0 4 1453 1478 1822 1908 1847 1507 1129 1127 855 1267 1238 855 833 896 1001 572 385 140 62 146 209 16 6 4 1 10 8 55
0 0 0 0 0 0 0 0 0 0 0 0 0 0 0 44 1349 1654 1700 1740 1778 1295 856 1265 1149 1058 880 638 926 941 634 713 628 283 57 21 55 2 1 0 0 1 21
0 0 0 0 0 0 0 0 0 0 0 0 0 0 0 4 508 1282 1584 1926 1741 1489 1337 1130 411 914 1037 883 881 853 599 633 721 415 242 90 4 6 7 0 2 2 24
CIN
-162 -469 -505 -409 -352 -314 -303 -314 -326 -282 -225 -189 -168 -139 -123 -103 -91 -86 -68 -56 -29 -1 0 0 0 -0 -1 -10 -28 -40 -50 -46 -28 -20 -29 -16 -9 -2 -3 -6 -8 -5 0
-148 -133 -506 -432 -354 -311 -285 -285 -302 -266 -199 -172 -156 -122 -105 -83 -69 -48 -30 -23 -4 0 0 0 0 0 -0 -2 -20 -33 -41 -39 -34 -22 -8 -1 0 -2 -7 -11 -12 -4 -0
-95 -192 -420 -447 -360 -304 -266 -244 -230 -229 -177 -155 -140 -111 -89 -75 -67 -53 -32 -10 -0 0 0 0 0 0 0 -1 -8 -18 -26 -29 -31 -30 -14 -38 -17 0 -5 -12 -11 -1 -0
-74 -188 -300 -432 -353 -297 -266 -241 -215 -175 -155 -141 -124 -102 -76 -69 -60 -46 -31 -20 -1 -1 -1 -0 0 0 -0 -1 -6 -20 -29 -33 -46 -49 -39 -9 -44 -0 -3 -5 -5 -1 0
-112 -82 -162 -442 -365 -287 -260 -226 -211 -180 -171 -146 -119 -88 -74 -70 -66 -46 -33 -24 -2 -2 -1 -1 -0 -0 -2 -4 -19 -34 -37 -52 -63 -58 -32 -23 -25 -3 -0 -0 -3 -1 -2
-70 -60 -147 -217 -387 -290 -248 -201 -180 -177 -171 -163 -140 -83 -63 -60 -55 -50 -45 -21 -1 -1 -3 -2 -0 -2 -7 -15 -35 -42 -52 -71 -82 -68 -18 -105 -18 -7 0 -2 -7 -9 -9
-39 -189 -126 -155 -265 -288 -226 -186 -155 -148 -154 -149 -132 -85 -61 -54 -51 -54 -64 -33 -6 -2 -3 -3 -2 -6 -11 -43 -32 -45 -60 -77 -82 -60 -10 -90 -9 -17 -5 -2 -7 -8 -8
-40 -50 -130 -156 -183 -297 -246 -211 -156 -136 -128 -120 -109 -86 -59 -57 -59 -61 -68 -50 -23 -6 -13 -16 -5 -19 -50 -50 -46 -51 -66 -88 -78 -73 -6 -41 -101 -20 -10 -1 -9 -9 -6
-34 -2 -79 -149 -171 -265 -251 -218 -182 -150 -112 -97 -92 -80 -65 -63 -64 -62 -69 -52 -26 -15 -12 -24 -18 -24 -56 -53 -52 -54 -66 -74 -90 -40 -11 -113 -32 -13 -11 -2 -5 -9 -6
-17 -10 -9 -59 -93 -137 -186 -219 -194 -169 -137 -99 -70 -62 -57 -49 -50 -49 -65 -46 -30 -16 -19 -26 -20 -30 -47 -59 -48 -50 -54 -69 -83 -87 -24 -48 -148 -11 -9 -0 -2 -4 -5
-27 -26 -16 -2 -65 -41 -56 -143 -199 -195 -165 -124 -82 -49 -35 -19 -30 -30 -44 -46 -31 -13 -17 -27 -21 -23 -37 -80 -56 -44 -40 -64 -58 -50 -32 -101 -32 -18 -10 -18 -8 -22 -6
-68 -34 -32 -51 -33 -27 -10 -36 -102 -109 -132 -131 -110 -87 -22 -8 -2 -8 -32 -39 -43 -20 -15 -18 -19 -19 -16 -30 -70 -50 -48 -35 -37 -29 -16 -84 -44 -16 -5 -17 -19 -17 -26
0 -15 -43 -61 -49 -10 -42 -1 -32 -52 -77 -78 -72 -61 -58 -28 -6 -5 -10 -20 -16 -20 -10 -8 -12 -10 -14 -12 -5 -35 -49 -24 -30 -7 -26 -22 -68 -16 -4 -9 -13 -9 -13
0 0 -32 -55 -41 -33 -24 -12 -5 -6 -25 -27 -42 -20 -11 -22 -10 -6 -10 -26 -25 -17 -14 -2 -8 -6 -6 -8 -6 -14 -12 -23 -10 -9 -8 -24 -76 -23 -9 -4 -4 -4 -5
0 0 0 -26 -22 -35 -16 -1 -6 -23 -12 -13 -20 -13 -12 -15 -8 -5 -8 -9 -30 -24 -28 -12 -3 -6 -5 -11 -15 -15 -8 -11 -4 -5 -11 -15 -15 -71 -20 -6 -3 -5 -0
0 0 0 0 -19 -3 -18 -34 -18 -20 -23 -19 -10 -10 -10 -8 -16 -10 -6 -18 -25 -33 -30 -32 -10 -8 -11 -11 -17 -14 -13 -9 -11 -20 -22 -2 -13 -38 -104 -5 -5 -0 0
0 0 0 0 0 -35 -4 -26 -28 -35 -24 -19 -15 -13 -30 -40 -29 -16 -16 -2 -13 -13 -54 -18 -10 -28 -14 -7 -9 -8 -9 -10 -4 -16 -12 -3 -6 -24 0 -28 -17 -21 -2
0 0 0 0 0 0 0 -17 -12 -9 -29 -20 -12 -11 -36 -65 -57 -32 -23 -25 -37 -32 -28 -27 -21 -11 -4 -8 -8 -4 -5 -5 -4 -13 -11 -22 -9 -25 -66 -15 -28 -20 -1
0 0 0 0 0 0 0 0 0 -28 -22 -28 -9 -13 -20 -66 -95 -28 -21 -16 -60 -57 -23 -17 -26 -15 -5 -4 -10 -5 -1 -6 -6 -8 -10 -9 -14 -6 -35 -29 -41 -28 -20
0 0 0 0 0 0 0 0 0 0 -4 -58 -20 -5 -17 -35 -59 -35 -12 -7 -33 -61 -35 -5 -30 -17 -12 -6 -5 0 -5 -3 -10 -14 -11 -2 -14 -24 -22 -4 -25 -22 -28
0 0 0 0 0 0 0 0 0 0 0 0 -40 -13 -20 -27 -23 -14 -7 -9 -0 -16 -48 -25 -38 -35 -45 -20 -7 -2 -17 -11 -8 -11 -12 -13 -24 -38 -6 -8 -14 -26 -0
0 0 0 0 0 0 0 0 0 0 0 0 0 -106 -27 -18 -16 -12 -5 -5 -2 -8 -19 -27 -92 -78 -49 -73 -32 -20 -19 -56 -73 -9 -5 -28 -11 -22 -2 0 -5 -7 -21
0 0 0 0 0 0 0 0 0 0 0 0 0 0 -19 -15 -32 -24 -3 -3 -3 -17 -9 -2 -29 -107 -82 -77 -10 -60 -64 -179 -181 -113 -33 -26 -30 -16 0 -5 0 -7 -8
0 0 0 0 0 0 0 0 0 0 0 0 0 0 -257 -23 -21 -22 -32 -15 -2 -31 -11 -29 -5 -34 -85 -95 -64 -31 -92 -53 -122 -159 -97 -24 -42 -38 0 -1 -61 -82 -22
0 0 0 0 0 0 0 0 0 0 0 0 0 0 0 -133 -15 -16 -21 -16 -1 -8 -36 -42 -6 -29 -26 -109 -53 -22 -47 -23 -12 -63 -127 -147 -21 0 0 0 -10 -28 -9
0 0 0 0 0 0 0 0 0 0 0 0 0 0 0 -164 -49 -25 -23 -12 -5 -9 -11 -43 -122 -7 -15 -62 -112 -55 -60 -19 -15 -26 -37 -70 -20 -0 -32 0 -1 -3 -57
Wind_Speed
28 33 35 33 33 33 32 31 29 28 29 29 30 30 28 26 26 24 25 27 26 26 25 24 23 19 15 12 12 15 18 20 22 24 25 27 30 31 30 29 26 28 25
31 35 34 36 35 35 35 35 34 34 34 34 33 32 31 30 30 28 25 25 26 25 25 24 23 21 18 15 13 16 18 20 24 26 28 28 29 30 28 26 26 27 29
33 36 33 36 36 36 36 38 37 36 36 37 36 35 35 35 34 32 28 24 23 23 24 24 23 21 20 19 17 19 20 22 24 27 28 27 25 26 27 25 32 30 28
31 34 30 33 35 35 35 36 37 37 38 40 40 40 39 38 38 34 32 26 22 22 24 23 22 22 21 21 21 22 23 23 25 24 20 24 30 24 25 31 33 32 28
26 34 33 36 34 35 36 36 36 37 38 41 41 41 41 40 38 35 32 30 25 21 22 24 22 20 21 21 22 23 24 24 24 20 20 25 29 14 26 32 30 31 26
25 25 41 38 35 35 35 36 36 38 39 39 41 41 40 38 36 33 31 29 27 25 26 24 21 20 21 21 21 22 25 24 23 19 23 25 21 29 28 27 34 31 30
26 38 35 41 37 35 35 35 36 37 40 40 41 39 37 35 33 31 29 27 25 26 29 27 23 22 20 20 20 21 22 21 21 20 29 27 12 31 30 28 34 29 24
27 36 36 38 37 36 35 35 36 37 37 38 39 37 35 33 32 32 30 28 26 27 28 30 26 26 23 22 21 22 21 20 21 15 28 26 28 31 27 27 34 31 32
36 31 34 33 33 34 34 34 36 37 36 37 36 35 34 32 31 33 33 31 32 29 27 28 28 28 26 23 22 20 21 19 16 13 26 26 39 26 39 35 34 32 28
39 38 33 37 35 32 34 35 37 37 37 37 35 35 34 33 33 32 34 32 31 31 27 28 27 26 27 25 23 22 20 17 16 11 21 29 41 38 40 30 33 43 24
38 42 39 38 37 34 35 37 38 38 39 38 37 36 35 31 34 34 34 36 35 32 30 28 28 27 25 25 23 23 22 19 18 16 23 34 38 41 37 37 35 39 25
35 45 43 44 40 37 35 41 39 38 37 37 37 36 31 30 35 35 37 36 39 35 32 31 28 28 28 24 25 23 21 19 17 18 24 33 31 31 33 35 35 34 18
nan 41 43 45 45 40 36 43 41 40 39 38 36 36 33 31 31 34 34 36 37 36 33 33 30 26 25 22 24 24 22 19 20 22 20 31 29 31 32 30 31 32 10
nan nan 43 44 44 45 42 40 39 39 41 40 40 37 35 32 32 32 34 35 38 38 36 34 34 31 24 25 21 25 21 21 22 25 30 29 31 30 29 29 28 27 9
nan nan nan 45 40 42 41 39 38 38 41 39 43 39 36 36 34 35 35 39 37 40 39 37 34 35 31 26 23 28 24 20 20 25 27 33 36 30 25 32 33 27 19
nan nan nan nan 47 47 43 44 40 39 38 41 42 41 36 36 36 34 37 39 43 39 41 37 38 38 36 31 28 27 26 24 24 25 28 30 38 nan 29 32 33 28 16
nan nan nan nan nan 46 45 46 44 43 41 39 41 43 39 37 34 34 36 39 36 38 38 40 38 43 41 37 33 32 28 27 28 27 30 33 31 nan nan 28 36 32 11
nan nan nan nan nan nan nan 45 44 43 43 43 41 42 45 41 39 35 36 36 41 43 41 39 41 44 44 42 41 37 35 30 29 29 32 33 32 34 nan nan nan 33 22
nan nan nan nan nan nan nan nan nan 41 41 41 41 42 47 43 43 37 35 36 41 44 43 43 43 46 47 46 45 44 40 37 32 32 33 33 33 36 32 38 nan 30 30
nan nan nan nan nan nan nan nan nan nan nan 38 37 39 40 45 43 43 39 37 42 43 43 45 43 46 49 50 48 47 49 42 37 33 35 36 36 nan nan 36 nan nan nan
nan nan nan nan nan nan nan nan nan nan nan nan 34 35 39 44 44 42 42 41 43 48 49 47 47 47 49 52 54 52 50 46 41 39 35 40 39 nan nan 31 nan nan nan
nan nan nan nan nan nan nan nan nan nan nan nan nan 37 35 39 43 44 43 47 49 59 59 49 50 44 47 51 50 52 52 43 41 36 36 40 39 nan nan nan nan nan nan
nan nan nan nan nan nan nan nan nan nan nan nan nan nan 38 42 50 53 50 52 52 65 60 41 49 47 49 55 56 52 55 nan nan 39 36 39 nan nan nan nan nan nan nan
nan nan nan nan nan nan nan nan nan nan nan nan nan nan nan 45 51 58 58 59 60 61 61 58 40 40 42 44 49 41 53 45 37 nan 37 37 nan nan nan nan nan nan nan
nan nan nan nan nan nan nan nan nan nan nan nan nan nan nan nan 56 63 63 63 63 63 62 63 67 49 49 46 47 48 45 38 32 41 nan nan nan nan nan nan nan nan nan
nan nan nan nan nan nan nan nan nan nan nan nan nan nan nan nan 46 49 46 49 55 59 61 55 64 57 41 45 46 55 43 41 34 40 40 nan nan nan nan nan nan nan nan
Wind_Direction
263 282 278 278 280 283 289 294 297 298 298 300 301 303 307 307 306 299 290 288 292 296 303 313 322 329 331 317 294 291 287 289 296 294 293 294 290 292 292 287 283 277 275
265 281 278 282 284 287 289 293 296 297 298 299 302 304 306 308 307 304 296 290 288 295 302 309 315 324 330 322 310 302 298 305 306 307 308 302 299 298 297 286 266 277 267
270 275 279 279 282 284 287 290 293 298 300 298 299 302 306 307 307 306 301 294 292 295 299 306 314 321 325 320 321 320 320 323 328 327 322 303 296 296 292 283 275 274 282
267 275 280 275 278 282 285 287 292 295 297 298 301 304 306 306 308 307 305 301 297 295 298 303 310 316 316 318 322 329 331 332 337 338 324 314 300 305 302 298 285 279 277
262 284 285 284 279 279 282 286 288 293 297 299 301 304 306 307 307 308 307 307 308 305 302 295 297 300 308 313 321 328 335 343 345 340 318 296 286 310 307 306 288 279 280
258 271 288 286 283 280 282 285 290 292 293 297 300 302 304 305 305 307 308 309 312 310 303 296 294 297 298 305 320 325 335 344 351 342 309 315 298 338 304 317 302 277 265
253 269 283 287 283 279 279 284 286 287 292 295 296 300 303 303 303 305 306 306 304 303 304 299 294 289 294 304 316 322 328 340 348 353 305 295 237 310 315 311 298 273 269
260 275 278 279 281 283 284 284 283 284 288 293 297 300 302 302 302 303 306 305 303 303 305 301 298 296 293 301 312 320 324 335 347 350 294 292 292 310 307 303 308 293 267
272 267 276 280 281 280 279 280 282 284 287 288 292 294 296 298 298 299 302 305 303 308 304 301 302 302 298 297 302 310 316 327 329 328 301 297 291 313 311 295 301 305 263
272 268 263 278 280 281 278 278 279 282 283 285 288 291 292 293 295 296 298 300 304 304 304 300 296 296 298 298 300 301 303 320 317 318 301 310 315 312 304 310 304 300 262
274 277 271 263 276 278 279 280 279 281 281 282 284 287 287 288 292 296 299 303 304 300 299 300 297 292 291 295 300 302 300 291 304 303 297 309 312 313 313 306 302 300 265
271 277 279 276 270 269 275 281 282 279 277 277 280 283 282 283 287 293 299 299 303 300 298 297 300 300 291 282 284 296 286 295 294 299 298 305 306 305 306 305 310 308 243
nan 274 279 279 279 275 267 274 276 275 275 276 280 280 282 279 275 282 284 290 289 291 283 285 288 288 295 287 284 290 298 297 289 292 296 304 310 316 314 309 310 318 240
nan nan 277 280 279 280 276 272 272 275 279 279 281 280 279 274 275 274 274 283 287 285 290 287 285 289 292 294 293 292 292 296 292 291 289 300 305 314 314 309 315 314 251
nan nan nan 262 271 276 275 272 274 276 274 276 278 284 283 283 278 276 278 279 282 283 285 285 285 289 291 289 290 296 291 289 296 285 292 303 301 302 308 304 319 305 231
nan nan nan nan 256 256 267 272 267 263 268 272 271 275 276 273 278 278 274 277 277 278 280 281 283 283 284 287 287 283 289 286 285 289 288 290 302 nan 301 302 316 311 244
nan nan nan nan nan 255 253 258 270 273 269 271 274 281 286 281 270 271 270 275 271 272 276 279 276 279 280 280 282 285 281 286 285 285 286 288 291 nan nan 293 308 305 269
nan nan nan nan nan nan nan 258 260 259 269 271 272 280 288 288 286 276 274 269 265 269 273 278 280 275 279 281 281 286 285 284 281 280 277 281 287 286 nan nan nan 305 275
nan nan nan nan nan nan nan nan nan 259 261 267 273 273 284 285 283 281 276 271 272 271 267 275 279 277 274 277 277 280 284 284 282 276 275 278 283 281 275 280 nan 296 289
nan nan nan nan nan nan nan nan nan nan nan 260 266 271 277 282 284 284 275 270 272 272 268 267 277 273 273 276 274 274 282 284 280 275 270 271 277 nan nan 278 nan nan nan
nan nan nan nan nan nan nan nan nan nan nan nan 263 271 268 279 285 276 277 277 274 272 270 270 265 272 267 269 266 265 268 271 271 273 268 269 273 nan nan 273 nan nan nan
nan nan nan nan nan nan nan nan nan nan nan nan nan 253 264 274 283 280 278 275 275 273 272 270 274 263 262 270 271 266 268 269 273 270 266 271 276 nan nan nan nan nan nan
nan nan nan nan nan nan nan nan nan nan nan nan nan nan 267 280 279 279 277 271 271 271 243 246 258 261 266 267 274 269 267 nan nan 267 267 269 nan nan nan nan nan nan nan
nan nan nan nan nan nan nan nan nan nan nan nan nan nan nan 277 282 280 277 271 268 265 265 265 244 247 259 265 263 265 265 267 270 nan 261 270 nan nan nan nan nan nan nan
nan nan nan nan nan nan nan nan nan nan nan nan nan nan nan nan 283 277 274 266 260 257 259 262 266 257 254 260 260 257 261 256 253 257 nan nan nan nan nan nan nan nan nan
nan nan nan nan nan nan nan nan nan nan nan nan nan nan nan nan 280 280 273 264 259 256 256 257 256 263 252 260 259 268 264 262 253 251 254 nan nan nan nan nan nan nan nan